Time,TemperatureF,DewpointF,PressureIn,WindDirection,WindDirectionDegrees,WindSpeedMPH,WindSpeedGustMPH,Humidity,HourlyPrecipIn,Conditions,Clouds,dailyrainin,SolarRadiationWatts/m^2,SoftwareType,DateUTC
2013-08-12 00:04:00,54.5,53.1,30.00,NW,304,0.0,0.0,95,0.00,,,0.00,0,Wunderground v.1.15,2013-08-12 07:04:00,
2013-08-12 00:09:00,54.5,53.1,30.00,WSW,258,0.0,1.0,95,0.00,,,0.00,0,Wunderground v.1.15,2013-08-12 07:09:00,
2013-08-12 00:14:00,54.4,53.0,30.00,WSW,257,0.0,0.0,95,0.00,,,0.00,0,Wunderground v.1.15,2013-08-12 07:14:00,
2013-08-12 00:20:00,54.4,53.0,30.00,WSW,242,0.0,0.0,95,0.00,,,0.00,0,Wunderground v.1.15,2013-08-12 07:20:00,
2013-08-12 00:25:00,54.3,52.9,30.00,WSW,242,0.0,2.0,95,0.00,,,0.00,0,Wunderground v.1.15,2013-08-12 07:25:00,
2013-08-12 00:31:00,54.3,52.9,30.00,WSW,243,1.0,1.0,95,0.00,,,0.00,0,Wunderground v.1.15,2013-08-12 07:31:00,
2013-08-12 00:36:00,54.3,52.9,30.00,WSW,242,0.0,1.0,95,0.00,,,0.00,0,Wunderground v.1.15,2013-08-12 07:36:00,
2013-08-12 00:41:00,54.4,53.0,29.99,WSW,243,0.0,0.0,95,0.00,,,0.00,0,Wunderground v.1.15,2013-08-12 07:41:00,
2013-08-12 00:47:00,54.4,53.0,29.99,WSW,243,0.0,0.0,95,0.00,,,0.00,0,Wunderground v.1.15,2013-08-12 07:47:00,
2013-08-12 00:52:00,54.4,53.0,29.99,WSW,243,0.0,0.0,95,0.00,,,0.00,0,Wunderground v.1.15,2013-08-12 07:52:00,
2013-08-12 00:57:00,54.3,52.6,29.99,WSW,244,0.0,0.0,94,0.00,,,0.00,0,Wunderground v.1.15,2013-08-12 07:57:00,
2013-08-12 01:05:00,54.3,52.6,29.99,WNW,292,0.0,0.0,94,0.00,,,0.00,0,Wunderground v.1.15,2013-08-12 08:05:00,
2013-08-12 01:11:00,54.3,52.9,29.99,WNW,292,0.0,0.0,95,0.00,,,0.00,0,Wunderground v.1.15,2013-08-12 08:11:00,
2013-08-12 01:16:00,54.2,52.8,29.99,WNW,292,0.0,0.0,95,0.00,,,0.00,0,Wunderground v.1.15,2013-08-12 08:16:00,
2013-08-12 01:22:00,54.2,52.5,29.99,WNW,292,0.0,0.0,94,0.00,,,0.00,0,Wunderground v.1.15,2013-08-12 08:22:00,
2013-08-12 01:27:00,54.2,52.5,29.99,WNW,292,0.0,0.0,94,0.00,,,0.00,0,Wunderground v.1.15,2013-08-12 08:27:00,
2013-08-12 01:32:00,54.1,52.4,29.99,WNW,292,0.0,0.0,94,0.00,,,0.00,0,Wunderground v.1.15,2013-08-12 08:32:00,
2013-08-12 01:38:00,54.1,52.4,29.99,WNW,292,0.0,0.0,94,0.00,,,0.00,0,Wunderground v.1.15,2013-08-12 08:38:00,
2013-08-12 01:43:00,54.0,52.6,29.99,WNW,292,0.0,0.0,95,0.00,,,0.00,0,Wunderground v.1.15,2013-08-12 08:43:00,
2013-08-12 01:49:00,54.0,52.6,29.99,WNW,292,0.0,0.0,95,0.00,,,0.00,0,Wunderground v.1.15,2013-08-12 08:49:00,
2013-08-12 01:55:00,53.9,52.5,29.99,NW,306,0.0,0.0,95,0.00,,,0.00,0,Wunderground v.1.15,2013-08-12 08:55:00,
2013-08-12 02:01:00,53.9,52.5,29.99,NW,306,0.0,0.0,95,0.00,,,0.00,0,Wunderground v.1.15,2013-08-12 09:01:00,
2013-08-12 02:06:00,53.9,52.5,29.99,NW,306,0.0,0.0,95,0.00,,,0.00,0,Wunderground v.1.15,2013-08-12 09:06:00,
2013-08-12 02:11:00,54.0,52.6,29.99,NW,306,0.0,0.0,95,0.00,,,0.00,0,Wunderground v.1.15,2013-08-12 09:11:00,
2013-08-12 02:16:00,54.0,52.6,29.98,NW,306,0.0,0.0,95,0.00,,,0.00,0,Wunderground v.1.15,2013-08-12 09:16:00,
2013-08-12 02:22:00,54.1,52.7,29.98,NW,306,0.0,0.0,95,0.00,,,0.00,0,Wunderground v.1.15,2013-08-12 09:22:00,
2013-08-12 02:27:00,54.1,52.7,29.98,NW,306,0.0,0.0,95,0.00,,,0.00,0,Wunderground v.1.15,2013-08-12 09:27:00,
2013-08-12 02:33:00,54.1,52.7,29.98,NW,306,0.0,0.0,95,0.00,,,0.00,0,Wunderground v.1.15,2013-08-12 09:33:00,
2013-08-12 02:38:00,54.1,52.7,29.98,NW,306,0.0,0.0,95,0.00,,,0.00,0,Wunderground v.1.15,2013-08-12 09:38:00,
2013-08-12 02:43:00,54.1,52.7,29.98,NW,306,0.0,0.0,95,0.00,,,0.00,0,Wunderground v.1.15,2013-08-12 09:43:00,
2013-08-12 02:49:00,54.1,52.7,29.98,NW,306,0.0,0.0,95,0.00,,,0.00,0,Wunderground v.1.15,2013-08-12 09:49:00,
2013-08-12 02:54:00,54.1,52.7,29.98,NW,306,0.0,0.0,95,0.00,,,0.00,0,Wunderground v.1.15,2013-08-12 09:54:00,
2013-08-12 03:00:00,54.1,52.7,29.98,NW,306,0.0,0.0,95,0.00,,,0.00,0,Wunderground v.1.15,2013-08-12 10:00:00,
2013-08-12 03:05:00,54.1,52.7,29.98,NW,306,0.0,0.0,95,0.00,,,0.00,0,Wunderground v.1.15,2013-08-12 10:05:00,
2013-08-12 03:10:00,54.2,52.8,29.98,NW,306,0.0,0.0,95,0.00,,,0.00,0,Wunderground v.1.15,2013-08-12 10:10:00,
2013-08-12 03:15:00,54.2,52.8,29.98,NW,306,0.0,0.0,95,0.00,,,0.00,0,Wunderground v.1.15,2013-08-12 10:15:00,
2013-08-12 03:21:00,54.2,52.8,29.98,NW,306,0.0,0.0,95,0.00,,,0.00,0,Wunderground v.1.15,2013-08-12 10:21:00,
2013-08-12 03:26:00,54.2,52.8,29.98,NW,306,0.0,0.0,95,0.00,,,0.00,0,Wunderground v.1.15,2013-08-12 10:26:00,
2013-08-12 03:33:00,54.2,52.8,29.98,NW,306,0.0,0.0,95,0.00,,,0.00,0,Wunderground v.1.15,2013-08-12 10:33:00,
2013-08-12 03:38:00,54.2,52.8,29.98,NW,306,0.0,0.0,95,0.00,,,0.00,0,Wunderground v.1.15,2013-08-12 10:38:00,
2013-08-12 03:43:00,54.3,52.9,29.97,NW,306,0.0,0.0,95,0.00,,,0.00,0,Wunderground v.1.15,2013-08-12 10:43:00,
2013-08-12 03:49:00,54.2,52.8,29.97,NW,306,0.0,0.0,95,0.00,,,0.00,0,Wunderground v.1.15,2013-08-12 10:49:00,
2013-08-12 03:54:00,54.2,52.8,29.97,NW,306,0.0,0.0,95,0.00,,,0.00,0,Wunderground v.1.15,2013-08-12 10:54:00,
2013-08-12 04:00:00,54.2,52.8,29.97,NW,306,0.0,0.0,95,0.00,,,0.00,0,Wunderground v.1.15,2013-08-12 11:00:00,
2013-08-12 04:05:00,54.2,52.8,29.97,NW,306,0.0,0.0,95,0.00,,,0.00,0,Wunderground v.1.15,2013-08-12 11:05:00,
2013-08-12 04:10:00,54.1,52.7,29.98,NW,306,0.0,0.0,95,0.00,,,0.00,0,Wunderground v.1.15,2013-08-12 11:10:00,
2013-08-12 04:16:00,54.1,52.7,29.97,NW,306,0.0,3.0,95,0.00,,,0.00,0,Wunderground v.1.15,2013-08-12 11:16:00,
2013-08-12 04:22:00,54.1,53.0,29.97,NW,306,0.0,0.0,96,0.00,,,0.00,0,Wunderground v.1.15,2013-08-12 11:22:00,
2013-08-12 04:27:00,54.1,53.0,29.98,NW,306,0.0,0.0,96,0.00,,,0.00,0,Wunderground v.1.15,2013-08-12 11:27:00,
2013-08-12 04:33:00,54.1,53.0,29.97,NW,306,0.0,0.0,96,0.00,,,0.00,0,Wunderground v.1.15,2013-08-12 11:33:00,
2013-08-12 04:38:00,54.0,52.9,29.98,NW,306,0.0,0.0,96,0.00,,,0.00,0,Wunderground v.1.15,2013-08-12 11:38:00,
2013-08-12 04:44:00,54.0,52.9,29.97,NW,306,0.0,0.0,96,0.00,,,0.00,0,Wunderground v.1.15,2013-08-12 11:44:00,
2013-08-12 04:49:00,54.0,52.9,29.98,NW,306,0.0,0.0,96,0.00,,,0.00,0,Wunderground v.1.15,2013-08-12 11:49:00,
2013-08-12 04:54:00,54.0,52.9,29.98,NW,306,0.0,0.0,96,0.00,,,0.00,0,Wunderground v.1.15,2013-08-12 11:54:00,
2013-08-12 05:00:00,54.1,53.0,29.97,NW,306,0.0,0.0,96,0.00,,,0.00,0,Wunderground v.1.15,2013-08-12 12:00:00,
2013-08-12 05:05:00,54.1,53.0,29.97,NW,306,0.0,0.0,96,0.00,,,0.00,0,Wunderground v.1.15,2013-08-12 12:05:00,
2013-08-12 05:10:00,54.1,53.0,29.98,NW,306,0.0,0.0,96,0.00,,,0.00,0,Wunderground v.1.15,2013-08-12 12:10:00,
2013-08-12 05:16:00,54.1,53.0,29.98,NW,306,0.0,0.0,96,0.00,,,0.00,0,Wunderground v.1.15,2013-08-12 12:16:00,
2013-08-12 05:21:00,54.0,52.9,29.98,NW,306,0.0,0.0,96,0.00,,,0.00,0,Wunderground v.1.15,2013-08-12 12:21:00,
2013-08-12 05:26:00,54.0,52.9,29.98,NW,306,0.0,0.0,96,0.00,,,0.00,0,Wunderground v.1.15,2013-08-12 12:26:00,
2013-08-12 05:31:00,54.1,53.0,29.98,NW,306,0.0,0.0,96,0.00,,,0.00,0,Wunderground v.1.15,2013-08-12 12:31:00,
2013-08-12 05:37:00,54.1,53.0,29.98,NW,306,0.0,0.0,96,0.00,,,0.00,0,Wunderground v.1.15,2013-08-12 12:37:00,
2013-08-12 05:43:00,54.1,53.0,29.99,NW,306,0.0,0.0,96,0.00,,,0.00,0,Wunderground v.1.15,2013-08-12 12:43:00,
2013-08-12 05:48:00,54.0,52.9,29.99,NW,306,0.0,0.0,96,0.00,,,0.00,0,Wunderground v.1.15,2013-08-12 12:48:00,
2013-08-12 05:53:00,54.0,52.9,29.98,NW,306,0.0,0.0,96,0.00,,,0.00,0,Wunderground v.1.15,2013-08-12 12:53:00,
2013-08-12 05:59:00,54.0,52.9,29.99,NW,306,0.0,0.0,96,0.00,,,0.00,0,Wunderground v.1.15,2013-08-12 12:59:00,
2013-08-12 06:04:00,54.0,52.9,29.99,NW,306,0.0,0.0,96,0.00,,,0.00,0,Wunderground v.1.15,2013-08-12 13:04:00,
2013-08-12 06:09:00,53.9,52.8,29.99,NW,306,0.0,0.0,96,0.00,,,0.00,0,Wunderground v.1.15,2013-08-12 13:09:00,
2013-08-12 06:15:00,53.9,52.8,29.99,NW,306,0.0,0.0,96,0.00,,,0.00,0,Wunderground v.1.15,2013-08-12 13:15:00,
2013-08-12 06:20:00,53.9,52.8,29.99,NW,306,0.0,0.0,96,0.00,,,0.00,0,Wunderground v.1.15,2013-08-12 13:20:00,
2013-08-12 06:26:00,54.0,52.9,29.99,NW,306,0.0,0.0,96,0.00,,,0.00,0,Wunderground v.1.15,2013-08-12 13:26:00,
2013-08-12 06:31:00,54.0,52.9,29.99,NW,306,0.0,0.0,96,0.00,,,0.00,5,Wunderground v.1.15,2013-08-12 13:31:00,
2013-08-12 06:37:00,54.0,52.9,29.99,NW,306,0.0,0.0,96,0.00,,,0.00,11,Wunderground v.1.15,2013-08-12 13:37:00,
2013-08-12 06:42:00,54.0,52.9,29.99,NW,306,0.0,0.0,96,0.00,,,0.00,14,Wunderground v.1.15,2013-08-12 13:42:00,
2013-08-12 06:48:00,54.0,52.9,29.99,NW,306,0.0,0.0,96,0.00,,,0.00,19,Wunderground v.1.15,2013-08-12 13:48:00,
2013-08-12 06:53:00,54.0,52.9,29.99,NW,306,0.0,0.0,96,0.00,,,0.00,28,Wunderground v.1.15,2013-08-12 13:53:00,
2013-08-12 06:58:00,54.0,52.9,30.00,NW,306,0.0,0.0,96,0.00,,,0.00,26,Wunderground v.1.15,2013-08-12 13:58:00,
2013-08-12 07:04:00,54.0,52.9,29.99,NW,306,0.0,0.0,96,0.00,,,0.00,33,Wunderground v.1.15,2013-08-12 14:04:00,
2013-08-12 07:09:00,54.1,53.0,30.00,NW,306,0.0,4.0,96,0.00,,,0.00,37,Wunderground v.1.15,2013-08-12 14:09:00,
2013-08-12 07:15:00,54.1,53.0,29.99,NW,306,0.0,0.0,96,0.00,,,0.00,44,Wunderground v.1.15,2013-08-12 14:15:00,
2013-08-12 07:20:00,54.2,53.1,30.00,NW,306,0.0,0.0,96,0.00,,,0.00,49,Wunderground v.1.15,2013-08-12 14:20:00,
2013-08-12 07:25:00,54.2,53.1,30.00,NW,306,0.0,0.0,96,0.00,,,0.00,58,Wunderground v.1.15,2013-08-12 14:25:00,
2013-08-12 07:31:00,54.3,53.2,30.00,NW,306,0.0,0.0,96,0.00,,,0.00,60,Wunderground v.1.15,2013-08-12 14:31:00,
2013-08-12 07:37:00,54.4,53.3,30.00,NW,306,0.0,0.0,96,0.00,,,0.00,56,Wunderground v.1.15,2013-08-12 14:37:00,
2013-08-12 07:42:00,54.6,53.5,30.00,NW,306,0.0,0.0,96,0.00,,,0.00,63,Wunderground v.1.15,2013-08-12 14:42:00,
2013-08-12 07:48:00,54.6,53.5,30.00,NW,306,0.0,0.0,96,0.00,,,0.00,91,Wunderground v.1.15,2013-08-12 14:48:00,
2013-08-12 07:53:00,54.6,53.5,30.00,NW,306,0.0,0.0,96,0.00,,,0.00,111,Wunderground v.1.15,2013-08-12 14:53:00,
2013-08-12 07:59:00,54.8,53.7,30.00,NW,306,0.0,0.0,96,0.00,,,0.00,118,Wunderground v.1.15,2013-08-12 14:59:00,
2013-08-12 08:05:00,55.0,53.9,30.00,NW,306,0.0,0.0,96,0.00,,,0.00,146,Wunderground v.1.15,2013-08-12 15:05:00,
2013-08-12 08:11:00,55.1,54.0,30.00,NW,306,0.0,0.0,96,0.00,,,0.00,163,Wunderground v.1.15,2013-08-12 15:11:00,
2013-08-12 08:16:00,55.3,54.2,30.00,NW,306,0.0,0.0,96,0.00,,,0.00,185,Wunderground v.1.15,2013-08-12 15:16:00,
2013-08-12 08:21:00,55.4,54.3,30.00,NW,306,0.0,0.0,96,0.00,,,0.00,221,Wunderground v.1.15,2013-08-12 15:21:00,
2013-08-12 08:27:00,55.5,54.4,30.00,West,265,0.0,0.0,96,0.00,,,0.00,285,Wunderground v.1.15,2013-08-12 15:27:00,
2013-08-12 08:32:00,55.7,54.6,30.00,West,277,0.0,0.0,96,0.00,,,0.00,230,Wunderground v.1.15,2013-08-12 15:32:00,
2013-08-12 08:37:00,55.7,54.6,30.00,West,277,0.0,3.0,96,0.00,,,0.00,197,Wunderground v.1.15,2013-08-12 15:37:00,
2013-08-12 08:44:00,56.1,55.0,30.01,NW,309,0.0,3.0,96,0.00,,,0.00,304,Wunderground v.1.15,2013-08-12 15:44:00,
2013-08-12 08:49:00,56.4,55.3,30.01,WNW,301,0.0,4.0,96,0.00,,,0.00,362,Wunderground v.1.15,2013-08-12 15:49:00,
2013-08-12 08:55:00,56.3,55.2,30.01,NW,304,0.0,4.0,96,0.00,,,0.00,378,Wunderground v.1.15,2013-08-12 15:55:00,
2013-08-12 09:00:00,56.1,55.0,30.01,NW,309,1.0,1.0,96,0.00,,,0.00,390,Wunderground v.1.15,2013-08-12 16:00:00,
2013-08-12 09:05:00,56.2,55.1,30.01,NW,304,1.0,4.0,96,0.00,,,0.00,396,Wunderground v.1.15,2013-08-12 16:05:00,
2013-08-12 09:11:00,56.4,55.3,30.01,WNW,298,1.0,1.0,96,0.00,,,0.00,394,Wunderground v.1.15,2013-08-12 16:11:00,
2013-08-12 09:16:00,56.6,55.5,30.01,NW,312,0.0,3.0,96,0.00,,,0.00,396,Wunderground v.1.15,2013-08-12 16:16:00,
2013-08-12 09:22:00,56.8,55.7,30.01,WNW,299,0.0,0.0,96,0.00,,,0.00,392,Wunderground v.1.15,2013-08-12 16:22:00,
2013-08-12 09:27:00,57.1,56.0,30.01,NW,324,0.0,4.0,96,0.00,,,0.00,390,Wunderground v.1.15,2013-08-12 16:27:00,
2013-08-12 09:32:00,57.5,56.1,30.01,WNW,298,1.0,1.0,95,0.00,,,0.00,392,Wunderground v.1.15,2013-08-12 16:32:00,
2013-08-12 09:38:00,57.9,56.5,30.01,NW,306,1.0,3.0,95,0.00,,,0.00,401,Wunderground v.1.15,2013-08-12 16:38:00,
2013-08-12 09:44:00,58.3,56.9,30.01,NW,304,0.0,0.0,95,0.00,,,0.00,413,Wunderground v.1.15,2013-08-12 16:44:00,
2013-08-12 09:50:00,58.8,57.1,30.01,NNW,348,1.0,6.0,94,0.00,,,0.00,441,Wunderground v.1.15,2013-08-12 16:50:00,
2013-08-12 09:55:00,59.4,57.4,30.01,WNW,303,1.0,2.0,93,0.00,,,0.00,473,Wunderground v.1.15,2013-08-12 16:55:00,
2013-08-12 10:01:00,59.7,57.4,30.01,West,274,1.0,1.0,92,0.00,,,0.00,512,Wunderground v.1.15,2013-08-12 17:01:00,
2013-08-12 10:06:00,60.0,57.1,30.01,WNW,286,1.0,1.0,90,0.00,,,0.00,550,Wunderground v.1.15,2013-08-12 17:06:00,
2013-08-12 10:12:00,60.6,57.0,30.01,NNW,333,1.0,1.0,88,0.00,,,0.00,599,Wunderground v.1.15,2013-08-12 17:12:00,
2013-08-12 10:18:00,61.1,57.2,30.01,NW,310,1.0,2.0,87,0.00,,,0.00,635,Wunderground v.1.15,2013-08-12 17:18:00,
2013-08-12 10:23:00,61.6,57.0,30.01,WNW,285,1.0,6.0,85,0.00,,,0.00,657,Wunderground v.1.15,2013-08-12 17:23:00,
2013-08-12 10:28:00,62.0,57.1,30.02,NW,321,2.0,6.0,84,0.00,,,0.00,668,Wunderground v.1.15,2013-08-12 17:28:00,
2013-08-12 10:34:00,62.3,57.4,30.02,NW,308,2.0,4.0,84,0.00,,,0.00,670,Wunderground v.1.15,2013-08-12 17:34:00,
2013-08-12 10:39:00,62.7,57.1,30.02,NW,306,2.0,6.0,82,0.00,,,0.00,668,Wunderground v.1.15,2013-08-12 17:39:00,
2013-08-12 10:45:00,63.0,57.1,30.02,WNW,298,1.0,2.0,81,0.00,,,0.00,694,Wunderground v.1.15,2013-08-12 17:45:00,
2013-08-12 10:50:00,63.2,57.3,30.02,NW,313,0.0,2.0,81,0.00,,,0.00,724,Wunderground v.1.15,2013-08-12 17:50:00,
2013-08-12 10:57:00,63.7,57.4,30.02,WNW,303,1.0,6.0,80,0.00,,,0.00,740,Wunderground v.1.15,2013-08-12 17:57:00,
2013-08-12 11:02:00,64.4,57.4,30.02,West,259,1.0,1.0,78,0.00,,,0.00,751,Wunderground v.1.15,2013-08-12 18:02:00,
2013-08-12 11:07:00,65.0,57.2,30.02,NW,320,2.0,8.0,76,0.00,,,0.00,765,Wunderground v.1.15,2013-08-12 18:07:00,
2013-08-12 11:13:00,65.3,57.5,30.02,WNW,292,2.0,4.0,76,0.00,,,0.00,775,Wunderground v.1.15,2013-08-12 18:13:00,
2013-08-12 11:18:00,65.8,57.7,30.02,NNE,22,2.0,9.0,75,0.00,,,0.00,789,Wunderground v.1.15,2013-08-12 18:18:00,
2013-08-12 11:24:00,66.3,57.8,30.02,North,360,4.0,8.0,74,0.00,,,0.00,800,Wunderground v.1.15,2013-08-12 18:24:00,
2013-08-12 11:30:00,66.5,57.2,30.02,NNE,19,4.0,9.0,72,0.00,,,0.00,810,Wunderground v.1.15,2013-08-12 18:30:00,
2013-08-12 11:35:00,66.6,56.9,30.02,NNE,26,5.0,9.0,71,0.00,,,0.00,819,Wunderground v.1.15,2013-08-12 18:35:00,
2013-08-12 11:41:00,66.6,56.9,30.01,North,11,6.0,9.0,71,0.00,,,0.00,830,Wunderground v.1.15,2013-08-12 18:41:00,
2013-08-12 11:46:00,66.9,57.2,30.01,North,5,5.0,9.0,71,0.00,,,0.00,840,Wunderground v.1.15,2013-08-12 18:46:00,
2013-08-12 11:51:00,67.1,57.0,30.01,NNE,13,3.0,9.0,70,0.00,,,0.00,851,Wunderground v.1.15,2013-08-12 18:51:00,
2013-08-12 11:57:00,67.5,57.0,30.01,NW,323,3.0,9.0,69,0.00,,,0.00,858,Wunderground v.1.15,2013-08-12 18:57:00,
2013-08-12 12:02:00,67.7,56.3,30.02,North,360,3.0,8.0,67,0.00,,,0.00,865,Wunderground v.1.15,2013-08-12 19:02:00,
2013-08-12 12:07:00,67.8,56.4,30.02,NNW,331,5.0,10.0,67,0.00,,,0.00,874,Wunderground v.1.15,2013-08-12 19:07:00,
2013-08-12 12:12:00,67.8,56.4,30.01,NNE,22,5.0,9.0,67,0.00,,,0.00,877,Wunderground v.1.15,2013-08-12 19:12:00,
2013-08-12 12:18:00,68.0,55.8,30.02,NNW,346,5.0,9.0,65,0.00,,,0.00,886,Wunderground v.1.15,2013-08-12 19:18:00,
2013-08-12 12:24:00,68.4,56.6,30.01,NNW,343,4.0,5.0,66,0.00,,,0.00,893,Wunderground v.1.15,2013-08-12 19:24:00,
2013-08-12 12:30:00,68.9,57.1,30.01,NNW,344,4.0,4.0,66,0.00,,,0.00,896,Wunderground v.1.15,2013-08-12 19:30:00,
2013-08-12 12:35:00,69.4,57.1,30.01,NNE,30,4.0,10.0,65,0.00,,,0.00,905,Wunderground v.1.15,2013-08-12 19:35:00,
2013-08-12 12:41:00,69.4,56.7,30.01,NNW,330,6.0,8.0,64,0.00,,,0.00,909,Wunderground v.1.15,2013-08-12 19:41:00,
2013-08-12 12:47:00,69.4,56.7,30.01,NW,319,6.0,10.0,64,0.00,,,0.00,911,Wunderground v.1.15,2013-08-12 19:47:00,
2013-08-12 12:53:00,69.8,57.5,30.01,North,355,6.0,7.0,65,0.00,,,0.00,916,Wunderground v.1.15,2013-08-12 19:53:00,
2013-08-12 12:59:00,70.0,56.8,30.01,NNE,19,6.0,11.0,63,0.00,,,0.00,919,Wunderground v.1.15,2013-08-12 19:59:00,
2013-08-12 13:04:00,70.1,56.9,30.01,North,360,7.0,10.0,63,0.00,,,0.00,921,Wunderground v.1.15,2013-08-12 20:04:00,
2013-08-12 13:10:00,70.1,57.4,30.01,North,5,7.0,10.0,64,0.00,,,0.00,923,Wunderground v.1.15,2013-08-12 20:10:00,
2013-08-12 13:15:00,70.3,57.1,30.01,NW,316,7.0,9.0,63,0.00,,,0.00,925,Wunderground v.1.15,2013-08-12 20:15:00,
2013-08-12 13:21:00,70.4,57.2,30.01,NNE,29,8.0,8.0,63,0.00,,,0.00,926,Wunderground v.1.15,2013-08-12 20:21:00,
2013-08-12 13:26:00,70.8,57.6,30.01,NNW,344,8.0,11.0,63,0.00,,,0.00,926,Wunderground v.1.15,2013-08-12 20:26:00,
2013-08-12 13:31:00,71.0,57.3,30.01,NE,42,9.0,14.0,62,0.00,,,0.00,923,Wunderground v.1.15,2013-08-12 20:31:00,
2013-08-12 13:37:00,71.1,57.9,30.01,NNE,17,8.0,14.0,63,0.00,,,0.00,926,Wunderground v.1.15,2013-08-12 20:37:00,
2013-08-12 13:42:00,71.4,57.7,30.01,NE,42,7.0,9.0,62,0.00,,,0.00,925,Wunderground v.1.15,2013-08-12 20:42:00,
2013-08-12 13:47:00,71.8,57.2,30.01,NNE,31,8.0,9.0,60,0.00,,,0.00,925,Wunderground v.1.15,2013-08-12 20:47:00,
2013-08-12 13:53:00,72.1,57.0,30.01,North,355,8.0,10.0,59,0.00,,,0.00,921,Wunderground v.1.15,2013-08-12 20:53:00,
2013-08-12 13:59:00,72.0,56.9,30.00,NNE,27,8.0,10.0,59,0.00,,,0.00,921,Wunderground v.1.15,2013-08-12 20:59:00,
2013-08-12 14:05:00,71.7,56.1,30.01,NNW,329,9.0,12.0,58,0.00,,,0.00,916,Wunderground v.1.15,2013-08-12 21:05:00,
2013-08-12 14:10:00,71.3,56.2,30.00,NNE,28,10.0,10.0,59,0.00,,,0.00,911,Wunderground v.1.15,2013-08-12 21:10:00,
2013-08-12 14:16:00,71.1,55.6,30.00,North,9,10.0,13.0,58,0.00,,,0.00,907,Wunderground v.1.15,2013-08-12 21:16:00,
2013-08-12 14:21:00,71.7,56.6,30.00,NNE,22,8.0,8.0,59,0.00,,,0.00,902,Wunderground v.1.15,2013-08-12 21:21:00,
2013-08-12 14:27:00,71.9,55.8,30.00,NE,44,8.0,11.0,57,0.00,,,0.00,898,Wunderground v.1.15,2013-08-12 21:27:00,
2013-08-12 14:32:00,72.0,55.9,30.00,NNE,33,9.0,10.0,57,0.00,,,0.00,893,Wunderground v.1.15,2013-08-12 21:32:00,
2013-08-12 14:38:00,72.1,55.5,30.00,North,355,9.0,12.0,56,0.00,,,0.00,888,Wunderground v.1.15,2013-08-12 21:38:00,
2013-08-12 14:43:00,72.4,56.3,30.00,North,5,7.0,10.0,57,0.00,,,0.00,884,Wunderground v.1.15,2013-08-12 21:43:00,
2013-08-12 14:48:00,72.5,55.4,30.00,NNW,336,8.0,16.0,55,0.00,,,0.00,879,Wunderground v.1.15,2013-08-12 21:48:00,
2013-08-12 14:54:00,72.6,55.5,30.00,NNE,31,8.0,11.0,55,0.00,,,0.00,872,Wunderground v.1.15,2013-08-12 21:54:00,
2013-08-12 15:00:00,72.7,55.1,30.00,North,5,6.0,11.0,54,0.00,,,0.00,863,Wunderground v.1.15,2013-08-12 22:00:00,
2013-08-12 15:05:00,73.0,55.9,30.00,NNE,13,7.0,9.0,55,0.00,,,0.00,854,Wunderground v.1.15,2013-08-12 22:05:00,
2013-08-12 15:10:00,73.1,54.4,30.00,NNW,348,7.0,7.0,52,0.00,,,0.00,846,Wunderground v.1.15,2013-08-12 22:10:00,
2013-08-12 15:15:00,73.2,54.5,30.00,NNE,30,7.0,10.0,52,0.00,,,0.00,838,Wunderground v.1.15,2013-08-12 22:15:00,
2013-08-12 15:21:00,73.6,54.9,29.99,NNE,15,7.0,7.0,52,0.00,,,0.00,830,Wunderground v.1.15,2013-08-12 22:21:00,
2013-08-12 15:26:00,73.8,54.0,29.99,NNE,29,8.0,9.0,50,0.00,,,0.00,821,Wunderground v.1.15,2013-08-12 22:26:00,
2013-08-12 15:32:00,73.4,55.2,29.99,NNE,14,9.0,10.0,53,0.00,,,0.00,809,Wunderground v.1.15,2013-08-12 22:32:00,
2013-08-12 15:37:00,72.9,54.8,29.99,NE,38,10.0,14.0,53,0.00,,,0.00,798,Wunderground v.1.15,2013-08-12 22:37:00,
2013-08-12 15:43:00,72.4,53.2,29.99,NNW,333,10.0,11.0,51,0.00,,,0.00,788,Wunderground v.1.15,2013-08-12 22:43:00,
2013-08-12 15:48:00,72.7,54.6,29.99,NNE,29,8.0,11.0,53,0.00,,,0.00,775,Wunderground v.1.15,2013-08-12 22:48:00,
2013-08-12 15:54:00,73.1,53.9,29.99,NNW,339,8.0,10.0,51,0.00,,,0.00,763,Wunderground v.1.15,2013-08-12 22:54:00,
2013-08-12 15:59:00,73.2,54.0,29.99,NNE,22,8.0,10.0,51,0.00,,,0.00,751,Wunderground v.1.15,2013-08-12 22:59:00,
2013-08-12 16:04:00,73.5,54.3,29.99,NE,47,8.0,11.0,51,0.00,,,0.00,740,Wunderground v.1.15,2013-08-12 23:04:00,
2013-08-12 16:10:00,73.2,54.5,29.99,NE,35,8.0,11.0,52,0.00,,,0.00,728,Wunderground v.1.15,2013-08-12 23:10:00,
2013-08-12 16:15:00,73.1,53.4,29.98,North,11,8.0,11.0,50,0.00,,,0.00,712,Wunderground v.1.15,2013-08-12 23:15:00,
2013-08-12 16:21:00,73.2,54.5,29.98,NNE,25,8.0,8.0,52,0.00,,,0.00,700,Wunderground v.1.15,2013-08-12 23:21:00,
2013-08-12 16:26:00,73.1,53.9,29.98,North,5,9.0,12.0,51,0.00,,,0.00,684,Wunderground v.1.15,2013-08-12 23:26:00,
2013-08-12 16:31:00,72.9,54.2,29.98,NNE,30,11.0,13.0,52,0.00,,,0.00,671,Wunderground v.1.15,2013-08-12 23:31:00,
2013-08-12 16:37:00,72.6,54.0,29.98,NNE,32,10.0,13.0,52,0.00,,,0.00,657,Wunderground v.1.15,2013-08-12 23:37:00,
2013-08-12 16:42:00,72.7,54.1,29.98,NNE,30,10.0,13.0,52,0.00,,,0.00,640,Wunderground v.1.15,2013-08-12 23:42:00,
2013-08-12 16:48:00,72.9,54.8,29.98,NNE,28,9.0,13.0,53,0.00,,,0.00,622,Wunderground v.1.15,2013-08-12 23:48:00,
2013-08-12 16:53:00,72.9,53.7,29.98,NNE,20,9.0,13.0,51,0.00,,,0.00,610,Wunderground v.1.15,2013-08-12 23:53:00,
2013-08-12 16:59:00,73.0,54.3,29.98,North,5,9.0,15.0,52,0.00,,,0.00,594,Wunderground v.1.15,2013-08-12 23:59:00,
2013-08-12 17:04:00,73.0,54.3,29.98,NNE,24,8.0,11.0,52,0.00,,,0.00,580,Wunderground v.1.15,2013-08-13 00:04:00,
2013-08-12 17:10:00,72.8,54.1,29.98,NE,38,8.0,11.0,52,0.00,,,0.00,564,Wunderground v.1.15,2013-08-13 00:10:00,
2013-08-12 17:15:00,72.7,54.1,29.98,North,5,8.0,11.0,52,0.00,,,0.00,548,Wunderground v.1.15,2013-08-13 00:15:00,
2013-08-12 17:20:00,72.4,54.3,29.98,NNW,346,9.0,9.0,53,0.00,,,0.00,343,Wunderground v.1.15,2013-08-13 00:20:00,
2013-08-12 17:25:00,72.5,54.9,29.98,NNE,30,8.0,11.0,54,0.00,,,0.00,512,Wunderground v.1.15,2013-08-13 00:25:00,
2013-08-12 17:31:00,72.2,54.1,29.98,NNE,32,8.0,11.0,53,0.00,,,0.00,494,Wunderground v.1.15,2013-08-13 00:31:00,
2013-08-12 17:37:00,72.1,54.5,29.98,NNE,21,9.0,11.0,54,0.00,,,0.00,480,Wunderground v.1.15,2013-08-13 00:37:00,
2013-08-12 17:42:00,71.9,54.3,29.98,NNE,23,8.0,8.0,54,0.00,,,0.00,457,Wunderground v.1.15,2013-08-13 00:42:00,
2013-08-12 17:47:00,71.6,54.6,29.97,NNE,17,8.0,13.0,55,0.00,,,0.00,443,Wunderground v.1.15,2013-08-13 00:47:00,
2013-08-12 17:53:00,71.2,54.2,29.97,NNE,13,9.0,12.0,55,0.00,,,0.00,425,Wunderground v.1.15,2013-08-13 00:53:00,
2013-08-12 17:58:00,70.8,53.8,29.97,NNE,26,9.0,12.0,55,0.00,,,0.00,406,Wunderground v.1.15,2013-08-13 00:58:00,
2013-08-12 18:04:00,70.8,53.3,29.97,NE,37,9.0,10.0,54,0.00,,,0.00,388,Wunderground v.1.15,2013-08-13 01:04:00,
2013-08-12 18:09:00,70.2,52.8,29.97,North,10,9.0,12.0,54,0.00,,,0.00,369,Wunderground v.1.15,2013-08-13 01:09:00,
2013-08-12 18:14:00,69.9,53.5,29.97,NNE,32,10.0,15.0,56,0.00,,,0.00,353,Wunderground v.1.15,2013-08-13 01:14:00,
2013-08-12 18:20:00,69.5,53.1,29.97,NNE,17,10.0,15.0,56,0.00,,,0.00,334,Wunderground v.1.15,2013-08-13 01:20:00,
2013-08-12 18:25:00,69.4,53.5,29.97,North,9,9.0,10.0,57,0.00,,,0.00,313,Wunderground v.1.15,2013-08-13 01:25:00,
2013-08-12 18:31:00,69.2,53.3,29.97,NNE,23,10.0,10.0,57,0.00,,,0.00,297,Wunderground v.1.15,2013-08-13 01:31:00,
2013-08-12 18:37:00,68.6,52.3,29.97,NE,41,10.0,11.0,56,0.00,,,0.00,276,Wunderground v.1.15,2013-08-13 01:37:00,
2013-08-12 18:42:00,68.0,52.2,29.97,NNE,22,9.0,10.0,57,0.00,,,0.00,255,Wunderground v.1.15,2013-08-13 01:42:00,
2013-08-12 18:48:00,67.6,52.3,29.97,NNE,32,9.0,14.0,58,0.00,,,0.00,239,Wunderground v.1.15,2013-08-13 01:48:00,
2013-08-12 18:53:00,67.1,51.8,29.97,NE,38,9.0,10.0,58,0.00,,,0.00,218,Wunderground v.1.15,2013-08-13 01:53:00,
2013-08-12 18:59:00,66.7,51.9,29.98,NNE,30,8.0,10.0,59,0.00,,,0.00,197,Wunderground v.1.15,2013-08-13 01:59:00,
2013-08-12 19:04:00,66.2,51.9,29.98,NNE,29,9.0,9.0,60,0.00,,,0.00,176,Wunderground v.1.15,2013-08-13 02:04:00,
2013-08-12 19:10:00,66.0,51.7,29.97,North,5,8.0,9.0,60,0.00,,,0.00,155,Wunderground v.1.15,2013-08-13 02:10:00,
2013-08-12 19:15:00,65.8,52.0,29.97,NE,45,7.0,10.0,61,0.00,,,0.00,134,Wunderground v.1.15,2013-08-13 02:15:00,
2013-08-12 19:20:00,65.7,51.9,29.97,NNE,19,5.0,5.0,61,0.00,,,0.00,113,Wunderground v.1.15,2013-08-13 02:20:00,
2013-08-12 19:26:00,65.6,52.2,29.97,North,5,3.0,5.0,62,0.00,,,0.00,91,Wunderground v.1.15,2013-08-13 02:26:00,
2013-08-12 19:31:00,65.4,52.0,29.97,NNE,26,1.0,6.0,62,0.00,,,0.00,72,Wunderground v.1.15,2013-08-13 02:31:00,
2013-08-12 19:37:00,65.2,51.8,29.98,NNW,337,2.0,6.0,62,0.00,,,0.00,56,Wunderground v.1.15,2013-08-13 02:37:00,
2013-08-12 19:42:00,65.2,52.3,29.98,North,360,3.0,8.0,63,0.00,,,0.00,39,Wunderground v.1.15,2013-08-13 02:42:00,
2013-08-12 19:47:00,65.1,52.2,29.98,NNE,16,5.0,9.0,63,0.00,,,0.00,26,Wunderground v.1.15,2013-08-13 02:47:00,
2013-08-12 19:53:00,64.9,52.8,29.98,NNE,24,5.0,6.0,65,0.00,,,0.00,18,Wunderground v.1.15,2013-08-13 02:53:00,
2013-08-12 19:58:00,64.6,53.0,29.99,NNE,22,3.0,6.0,66,0.00,,,0.00,11,Wunderground v.1.15,2013-08-13 02:58:00,
2013-08-12 20:04:00,64.3,52.7,29.99,NNE,18,1.0,5.0,66,0.00,,,0.00,5,Wunderground v.1.15,2013-08-13 03:04:00,
2013-08-12 20:10:00,64.0,52.8,29.99,NNE,20,2.0,5.0,67,0.00,,,0.00,0,Wunderground v.1.15,2013-08-13 03:10:00,
2013-08-12 20:15:00,63.6,52.8,29.99,NNE,24,2.0,4.0,68,0.00,,,0.00,0,Wunderground v.1.15,2013-08-13 03:15:00,
2013-08-12 20:21:00,63.4,53.0,29.99,NNE,26,0.0,1.0,69,0.00,,,0.00,0,Wunderground v.1.15,2013-08-13 03:21:00,
2013-08-12 20:26:00,62.9,52.6,29.99,NNE,30,1.0,4.0,69,0.00,,,0.00,0,Wunderground v.1.15,2013-08-13 03:26:00,
2013-08-12 20:31:00,62.6,52.7,29.99,NNE,26,2.0,8.0,70,0.00,,,0.00,0,Wunderground v.1.15,2013-08-13 03:31:00,
2013-08-12 20:37:00,62.2,51.9,29.99,NNE,27,3.0,8.0,69,0.00,,,0.00,0,Wunderground v.1.15,2013-08-13 03:37:00,
2013-08-12 20:43:00,62.1,51.8,30.00,NNE,28,1.0,2.0,69,0.00,,,0.00,0,Wunderground v.1.15,2013-08-13 03:43:00,
2013-08-12 20:48:00,61.9,51.6,29.99,NE,34,0.0,2.0,69,0.00,,,0.00,0,Wunderground v.1.15,2013-08-13 03:48:00,
2013-08-12 20:54:00,61.8,51.9,30.00,NE,42,1.0,7.0,70,0.00,,,0.00,0,Wunderground v.1.15,2013-08-13 03:54:00,
2013-08-12 20:59:00,61.7,51.4,30.00,NE,42,1.0,7.0,69,0.00,,,0.00,0,Wunderground v.1.15,2013-08-13 03:59:00,
2013-08-12 21:02:00,61.7,51.4,30.00,NE,43,0.0,1.0,69,0.00,,,0.00,0,Wunderground v.1.15,2013-08-13 04:02:00,
2013-08-12 21:03:00,61.7,51.4,30.00,NE,43,0.0,1.0,69,0.00,,,0.00,0,Wunderground v.1.15,2013-08-13 04:03:00,
2013-08-12 21:06:00,61.7,51.4,30.00,NE,43,0.0,1.0,69,0.00,,,0.00,0,Wunderground v.1.15,2013-08-13 04:06:00,
2013-08-12 21:07:00,61.6,51.3,30.00,NE,43,0.0,1.0,69,0.00,,,0.00,0,Wunderground v.1.15,2013-08-13 04:07:00,
2013-08-12 21:12:00,61.6,51.3,30.00,NE,43,0.0,0.0,69,0.00,,,0.00,0,Wunderground v.1.15,2013-08-13 04:12:00,
2013-08-12 21:18:00,61.6,51.3,30.00,NE,44,0.0,0.0,69,0.00,,,0.00,0,Wunderground v.1.15,2013-08-13 04:18:00,
2013-08-12 21:23:00,61.5,51.2,30.00,NE,43,0.0,0.0,69,0.00,,,0.00,0,Wunderground v.1.15,2013-08-13 04:23:00,
2013-08-12 21:29:00,61.4,51.5,30.00,NE,43,0.0,0.0,70,0.00,,,0.00,0,Wunderground v.1.15,2013-08-13 04:29:00,
2013-08-12 21:34:00,61.4,51.1,30.00,NE,43,0.0,0.0,69,0.00,,,0.00,0,Wunderground v.1.15,2013-08-13 04:34:00,
2013-08-12 21:39:00,61.4,50.7,30.00,NE,36,0.0,0.0,68,0.00,,,0.00,0,Wunderground v.1.15,2013-08-13 04:39:00,
2013-08-12 21:45:00,61.5,50.8,30.00,NNE,24,0.0,1.0,68,0.00,,,0.00,0,Wunderground v.1.15,2013-08-13 04:45:00,
2013-08-12 21:50:00,61.6,50.9,30.00,NNE,24,0.0,1.0,68,0.00,,,0.00,0,Wunderground v.1.15,2013-08-13 04:50:00,
2013-08-12 21:55:00,61.6,50.9,30.00,NNE,24,0.0,0.0,68,0.00,,,0.00,0,Wunderground v.1.15,2013-08-13 04:55:00,
2013-08-12 22:01:00,61.6,51.3,30.00,NNE,24,0.0,0.0,69,0.00,,,0.00,0,Wunderground v.1.15,2013-08-13 05:01:00,
2013-08-12 22:07:00,61.4,51.1,30.00,NNE,24,0.0,0.0,69,0.00,,,0.00,0,Wunderground v.1.15,2013-08-13 05:07:00,
2013-08-12 22:12:00,61.3,51.0,30.00,NNE,23,0.0,0.0,69,0.00,,,0.00,0,Wunderground v.1.15,2013-08-13 05:12:00,
2013-08-12 22:18:00,61.1,51.6,30.00,NNE,24,0.0,0.0,71,0.00,,,0.00,0,Wunderground v.1.15,2013-08-13 05:18:00,
2013-08-12 22:24:00,60.6,51.5,30.00,NNE,24,0.0,0.0,72,0.00,,,0.00,0,Wunderground v.1.15,2013-08-13 05:24:00,
2013-08-12 22:29:00,60.2,51.1,30.00,NNE,24,0.0,0.0,72,0.00,,,0.00,0,Wunderground v.1.15,2013-08-13 05:29:00,
2013-08-12 22:35:00,59.9,51.2,30.00,NNE,24,0.0,0.0,73,0.00,,,0.00,0,Wunderground v.1.15,2013-08-13 05:35:00,
2013-08-12 22:40:00,59.5,52.3,30.00,NNE,24,0.0,0.0,77,0.00,,,0.00,0,Wunderground v.1.15,2013-08-13 05:40:00,
2013-08-12 22:45:00,59.0,52.1,30.00,NNE,24,0.0,0.0,78,0.00,,,0.00,0,Wunderground v.1.15,2013-08-13 05:45:00,
2013-08-12 22:51:00,58.5,52.4,30.00,NNE,24,0.0,0.0,80,0.00,,,0.00,0,Wunderground v.1.15,2013-08-13 05:51:00,
2013-08-12 22:56:00,57.9,51.1,30.00,NNE,24,0.0,0.0,78,0.00,,,0.00,0,Wunderground v.1.15,2013-08-13 05:56:00,
2013-08-12 23:02:00,57.7,50.9,30.00,NNE,24,0.0,0.0,78,0.00,,,0.00,0,Wunderground v.1.15,2013-08-13 06:02:00,
2013-08-12 23:07:00,57.7,50.5,30.00,NNE,23,0.0,0.0,77,0.00,,,0.00,0,Wunderground v.1.15,2013-08-13 06:07:00,
2013-08-12 23:12:00,57.8,50.6,30.00,NNE,22,0.0,0.0,77,0.00,,,0.00,0,Wunderground v.1.15,2013-08-13 06:12:00,
2013-08-12 23:17:00,57.8,50.3,30.00,NNE,22,0.0,0.0,76,0.00,,,0.00,0,Wunderground v.1.15,2013-08-13 06:17:00,
2013-08-12 23:23:00,58.0,50.5,30.00,NNE,22,0.0,0.0,76,0.00,,,0.00,0,Wunderground v.1.15,2013-08-13 06:23:00,
2013-08-12 23:28:00,58.1,51.6,30.00,NNE,22,0.0,0.0,79,0.00,,,0.00,0,Wunderground v.1.15,2013-08-13 06:28:00,
2013-08-12 23:34:00,57.7,51.9,30.00,NNE,22,0.0,0.0,81,0.00,,,0.00,0,Wunderground v.1.15,2013-08-13 06:34:00,
2013-08-12 23:40:00,57.3,51.9,30.00,NNE,22,0.0,0.0,82,0.00,,,0.00,0,Wunderground v.1.15,2013-08-13 06:40:00,
2013-08-12 23:46:00,56.9,51.5,30.00,NNE,22,0.0,0.0,82,0.00,,,0.00,0,Wunderground v.1.15,2013-08-13 06:46:00,
2013-08-12 23:51:00,56.3,51.2,30.00,NNE,22,0.0,0.0,83,0.00,,,0.00,0,Wunderground v.1.15,2013-08-13 06:51:00,
2013-08-12 23:56:00,56.1,51.3,30.00,NNE,22,0.0,0.0,84,0.00,,,0.00,0,Wunderground v.1.15,2013-08-13 06:56:00,